User: anonymous   Login
Location: NJAA Observatory
(40.6819°N, 74.8979°W)
Time: 13:30:56
(UTC-04:00)
Language:

S-56A Canister/Altair - Orbit

View from above orbital plane
View from above orbital plane
View from above satellite
View from above satellite

Ground track
Ground track

The orbit data is extracted from the following two-line orbital elements,

1 00082U 61004B   15089.15552741  .00000084  00000-0  93557-4 0  9999
2 00082 038.8633 054.1061 1174813 246.3132 101.0069 12.25684627573865
Epoch (UTC): 30 March 2015 03:43:57
Eccentricity: 0.1174813
inclination: 38.8633°
perigee height: 634 km
apogee height: 2501 km
right ascension of ascending node: 54.1061°
argument of perigee: 246.3132°
revolutions per day: 12.25684627
mean anomaly at epoch: 101.0069°
orbit number at epoch: 57386

The dashed part of the orbit path shows where the satellite is in the earth's shadow,  

DLR